Regional Weather Roundup
Issued by NWS Goodland, KS

Home | Current Version | Previous Version | Graphics & Text | Print | Product List | Glossary On
Versions: 1 2 3 4 5 6 7 8 9 10 11 12 13 14 15 16 17 18 19 20 21 22 23 24 25 26 27 28 29 30 31 32 33 34 35 36 37 38 39 40 41 42 43 44 45 46 47 48 49 50
000
ASUS43 KGLD 072108
RWRGLD

GOODLAND FORECAST AREA HOURLY WEATHER ROUNDUP
NATIONAL WEATHER SERVICE GOODLAND KS
200 PM MST WED DEC 07 2016

...OFFICIAL OBSERVATIONS...

CITY           SKY/WX    TMP DP  RH WIND       PRES   REMARKS
GOODLAND KS    LGT SNOW  16   9  74 N13       30.28R WCI   2
HILL CITY KS   PTSUNNY   22  13  68 N8        30.36R
IMPERIAL NEB   CLOUDY    16   8  71 NW15      30.32R WCI   1
MCCOOK NEB     LGT SNOW  18  11  74 N13       30.35R WCI   5
AKRON CO       FLURRIES  11   3  70 N13       30.24R WCI  -4
BURLINGTON CO  FLURRIES  16   8  71 N10       30.25R WCI   4
LIMON CO       CLOUDY    11   7  84 N13       30.18R WCI  -4
$$

...UNOFFICIAL OBSERVATIONS...

CITY           SKY/WX    TMP DP  RH WIND       PRES   REMARKS
COLBY KS       CLOUDY    19  14  79 NW12      30.32R WCI   7
LENORA KS        N/A     20  32 100 MISG        N/A
NORTON KS      PTSUNNY   19  10  68 NW10G17   30.34R WCI   8
SHARON SPRINGS   N/A     18  15  88 N9          N/A
TRENTON NEB      N/A     16  32 100 N5          N/A
KIT CARSON CO    N/A     16   8  71 MISG        N/A
YUMA CO        CLOUDY    12   3  67 NW9       30.28R
$$




USA.gov is the U.S. government's official web portal to all federal, state and local government web resources and services.